Temperature
12 11 11 11 11 12 12 12 12 12 13 13 13 13 13 14 14 14 14 14 14 14 14 15 15 15 15 15 15 15 15 15 15 15 15 15 15 15 15 15 15 15 15
11 11 11 11 11 11 11 12 12 12 12 12 13 13 13 13 13 13 14 14 14 14 14 14 14 14 14 14 14 14 14 14 14 14 14 14 14 14 14 14 14 14 14
12 11 11 11 11 11 11 11 12 12 12 12 12 12 13 13 13 13 13 13 13 14 14 14 14 14 14 14 14 14 14 14 14 14 14 14 14 14 14 14 14 14 14
12 11 11 11 11 11 11 11 11 11 12 12 12 12 12 12 12 13 13 13 13 13 13 14 14 14 14 14 14 14 14 14 14 14 14 14 14 13 14 13 13 13 13
11 11 11 11 11 11 11 11 11 11 11 11 11 12 12 12 12 12 12 12 13 13 13 13 13 13 13 14 14 14 14 14 13 13 13 13 13 13 13 13 13 13 13
11 11 11 11 10 10 10 10 10 11 11 11 11 11 12 12 12 12 12 12 12 12 13 13 13 13 13 13 13 13 13 13 13 13 13 13 13 13 13 13 13 13 12
11 11 10 10 10 10 10 10 10 10 10 11 11 11 11 11 11 11 11 12 12 12 12 12 13 13 13 13 13 13 13 13 13 13 13 13 13 13 13 13 13 13 13
11 11 10 10 10 10 10 10 10 10 10 10 10 10 10 11 11 11 11 11 11 12 12 12 12 12 12 13 13 13 13 13 13 13 13 13 13 13 13 13 13 12 12
11 11 10 10 10 10 10 10 10 10 10 10 10 10 10 11 11 11 11 11 11 11 11 12 12 12 12 12 12 13 13 13 13 13 13 13 13 13 13 13 12 12 12
11 11 11 10 10 10 10 10 9 9 10 10 10 10 10 10 10 10 11 11 11 11 11 11 11 12 12 12 12 12 13 12 13 13 13 13 13 13 13 13 13 12 12
11 11 11 11 10 10 10 10 10 10 10 10 10 10 10 10 10 10 10 11 11 11 11 11 11 11 11 12 12 12 12 12 12 12 12 12 12 12 12 12 12 12 12
12 11 11 11 11 10 10 10 10 10 10 10 10 10 10 10 10 10 10 10 11 11 11 11 11 11 11 11 12 12 12 12 12 12 12 12 12 12 12 12 12 12 12
12 12 11 11 11 11 10 10 10 10 10 10 10 10 10 10 10 10 10 10 11 11 11 11 11 11 11 11 11 11 11 11 12 12 12 12 11 11 11 11 11 11 11
12 12 12 11 11 11 11 11 11 11 11 11 11 11 10 10 10 10 10 10 11 11 11 11 11 11 11 11 11 11 11 11 11 11 11 11 11 11 11 11 11 11 11
13 12 12 12 12 11 11 11 11 11 11 11 11 11 11 11 11 11 11 11 11 11 11 11 11 11 11 11 11 11 11 11 11 11 11 11 11 10 10 10 10 10 10
13 13 12 12 12 12 11 11 11 11 11 11 11 11 11 11 11 11 11 11 11 11 11 11 11 11 11 11 11 11 11 11 11 10 10 10 10 10 10 10 10 10 10
14 13 13 13 12 12 12 11 11 11 11 11 11 11 11 11 11 11 11 11 11 11 11 11 11 11 11 11 10 10 10 10 10 10 10 10 10 10 10 9 9 9 9
14 14 13 13 13 12 12 12 12 11 11 11 11 11 11 11 11 11 11 11 11 11 11 11 11 11 11 11 10 10 10 10 10 10 10 10 9 9 9 9 9 9 9
15 14 14 13 13 13 12 12 12 12 12 12 11 11 11 11 11 11 11 11 11 11 11 11 11 11 11 11 10 10 10 10 10 10 9 9 9 9 9 9 9 9 9
15 15 14 14 13 13 13 12 12 12 12 12 12 12 11 11 11 11 11 11 11 11 11 11 11 11 11 11 10 10 10 10 10 9 9 9 9 9 9 9 9 9 8
16 15 15 14 14 13 13 13 13 12 12 12 12 12 12 12 11 11 11 11 11 11 11 11 11 11 11 11 10 10 10 10 10 9 9 9 9 9 9 9 8 8 8
16 15 15 15 14 14 13 13 13 13 13 12 12 12 12 12 12 12 12 12 12 12 12 11 11 11 11 11 11 11 10 10 10 9 9 9 9 9 9 8 8 8 8
16 16 15 15 15 14 14 13 13 13 13 13 13 12 12 12 12 12 12 12 12 12 12 12 12 12 12 11 11 11 11 10 10 9 9 9 9 9 9 8 8 8 8
16 16 15 15 15 14 14 14 13 13 13 13 13 13 13 13 13 12 12 12 12 12 12 12 12 12 12 12 12 12 11 11 10 10 9 9 9 9 8 8 8 8 8
16 16 15 15 15 15 14 14 14 13 13 13 13 13 13 13 13 13 12 12 12 12 12 12 12 12 12 12 12 12 12 11 11 11 10 10 9 9 8 8 8 8 8
16 16 16 15 15 15 14 14 14 14 13 13 13 13 13 13 13 13 13 12 12 12 12 12 12 12 12 12 12 12 12 11 11 11 11 10 10 10 9 9 8 8 8
Wind_Speed
7 7 8 8 8 8 8 8 8 8 9 9 8 8 8 8 6 4 2 2 2 2 2 4 5 5 5 4 4 4 4 4 4 2 1 1 3 4 4 5 6 6 8
6 7 8 8 8 9 9 9 8 9 9 9 9 9 8 8 7 6 5 4 3 2 2 3 3 4 4 4 4 4 4 4 4 4 2 2 2 4 4 4 4 5 5
5 7 7 8 8 8 8 8 8 8 9 9 9 9 8 8 7 7 6 5 3 2 2 3 3 4 4 3 4 4 4 4 3 4 3 1 2 2 4 4 4 3 5
5 6 7 7 7 7 7 7 8 8 8 9 9 8 8 7 7 7 7 6 5 4 3 2 2 3 4 4 4 4 4 4 4 4 4 2 2 3 4 4 4 3 4
4 5 6 6 6 7 7 7 7 8 8 7 8 9 8 7 7 7 6 6 5 4 4 3 3 3 4 4 3 4 5 4 4 4 4 3 3 4 4 3 4 5 4
4 4 5 5 6 6 6 7 7 7 7 8 8 8 8 7 10 11 7 5 5 5 4 4 3 4 3 3 5 6 6 6 5 4 3 4 4 3 4 5 6 5 3
3 3 4 5 5 6 6 7 6 6 6 7 8 8 8 9 12 11 10 6 6 6 5 4 4 4 5 4 6 6 5 5 6 6 5 5 5 5 6 6 5 4 4
3 2 3 4 5 5 6 6 5 4 5 5 6 7 7 10 13 11 10 7 6 6 6 5 5 4 4 5 6 6 6 4 3 4 4 4 4 5 6 6 7 7 7
2 0 1 2 3 4 5 5 4 4 4 5 5 7 8 9 13 12 10 5 6 7 6 6 5 4 5 6 7 7 7 6 7 9 8 7 8 10 10 8 8 8 5
2 2 1 1 2 3 4 3 3 3 3 4 6 7 8 8 13 13 10 5 6 5 5 6 8 6 6 7 6 6 7 5 5 7 8 9 8 9 10 7 8 8 5
3 2 1 1 1 2 3 3 3 4 4 5 6 6 7 9 12 13 11 5 4 5 5 5 5 7 7 7 6 5 6 6 6 7 7 7 7 6 5 5 5 6 5
3 2 1 2 2 1 3 4 4 4 5 4 4 5 6 7 9 10 12 10 6 4 4 3 4 7 7 7 5 6 9 8 6 6 6 6 5 5 5 6 9 9 7
4 3 3 2 1 1 2 2 3 4 3 3 3 3 4 5 7 11 11 10 9 4 3 5 7 8 8 6 7 9 7 6 6 6 6 4 3 4 4 5 7 10 12
5 5 4 3 2 1 1 1 2 1 2 2 2 2 3 4 5 6 6 5 6 5 4 5 8 10 8 7 7 6 5 4 5 5 4 3 3 4 4 4 4 4 5
6 5 5 5 4 3 2 1 2 2 3 2 1 1 1 2 4 6 4 4 3 2 3 4 5 5 5 5 5 5 4 4 4 3 4 4 4 4 3 3 3 4 4
5 5 5 5 4 4 3 2 3 4 4 3 4 3 3 4 5 6 6 6 4 4 5 4 4 4 4 4 4 4 3 3 3 4 4 4 4 4 3 3 3 4 4
7 6 5 5 5 5 5 4 4 4 5 6 6 6 5 5 4 5 5 5 4 5 4 3 2 2 2 2 3 3 2 2 2 4 4 4 4 4 4 4 4 4 3
7 7 7 6 6 6 6 5 5 4 4 4 6 8 7 6 5 4 4 3 3 3 2 2 2 2 2 2 2 2 2 2 3 3 3 3 4 4 4 4 4 4 4
7 6 6 6 6 6 5 5 5 6 5 4 3 4 6 6 5 4 1 1 2 2 2 2 2 2 2 2 2 2 3 3 3 3 3 4 4 4 4 4 4 6 4
7 10 9 6 6 6 5 5 5 5 5 5 6 5 3 3 2 3 3 3 3 4 4 4 3 3 3 3 3 2 3 3 3 3 3 3 3 4 5 5 5 4 4
8 8 11 7 6 6 6 6 6 6 6 6 7 7 10 6 6 6 5 5 5 5 5 5 5 4 4 3 3 3 4 3 3 4 4 4 4 3 4 4 4 4 4
8 7 7 7 7 7 7 6 6 6 7 8 6 6 12 7 6 6 6 6 7 6 6 6 6 5 5 5 5 5 4 4 4 4 4 4 4 4 4 4 4 4 4
9 9 8 7 7 9 8 7 6 7 7 7 7 6 6 8 8 7 8 7 7 6 6 6 6 6 6 8 8 6 6 6 6 6 6 5 5 4 4 4 5 5 5
11 11 10 8 8 7 7 8 7 7 8 7 7 7 8 9 9 9 9 7 7 7 7 7 7 9 10 10 11 11 11 10 9 9 8 7 6 5 4 4 4 5 5
12 11 11 10 9 9 8 8 8 8 8 8 7 7 7 8 9 9 8 8 8 8 9 10 10 11 13 14 14 14 15 14 13 11 10 6 6 6 5 5 5 4 5
13 13 11 10 9 9 9 9 9 9 8 8 8 7 8 8 9 9 8 8 8 8 9 9 12 15 16 17 19 20 19 18 17 15 13 7 6 6 6 5 6 5 5
Wind_Direction
4 10 13 11 11 18 23 20 19 21 22 23 21 25 28 27 28 37 50 91 126 148 162 173 181 175 177 180 175 171 172 165 178 189 169 141 146 151 145 157 174 183 197
8 16 16 15 18 22 21 20 22 25 24 24 23 26 28 29 27 32 39 56 88 115 133 144 163 168 175 175 173 173 173 171 171 171 159 148 139 156 146 143 149 165 175
21 25 19 16 19 19 17 17 20 23 23 23 25 25 24 24 26 28 36 44 65 83 106 144 156 152 164 173 170 169 170 173 163 158 159 143 128 136 123 117 116 110 135
30 29 22 15 15 15 16 17 18 21 24 22 22 20 20 22 27 27 34 39 48 57 72 99 125 148 159 160 162 163 155 156 155 150 144 137 130 129 127 129 115 99 107
42 31 16 10 14 16 17 16 18 22 25 18 22 19 15 19 27 30 34 44 51 57 59 67 77 108 145 154 158 161 154 154 149 145 141 135 139 146 152 144 131 115 88
59 34 15 14 13 12 12 14 17 17 15 19 20 18 19 22 28 37 45 44 50 61 58 47 55 58 80 115 148 157 159 160 160 155 153 156 160 154 143 143 140 134 121
73 41 20 17 16 8 12 16 14 11 14 17 15 14 12 10 27 40 50 56 57 53 51 49 56 56 64 74 88 96 108 132 154 155 154 163 164 164 150 146 143 127 115
87 50 20 19 14 7 12 11 5 4 11 14 15 13 15 16 31 44 55 53 57 52 48 49 57 50 66 88 90 82 73 69 105 131 146 157 160 151 147 140 128 107 94
111 71 348 15 17 10 5 358 354 6 14 14 15 20 22 14 31 48 57 51 57 47 39 43 58 60 72 92 97 94 83 68 76 90 93 97 111 124 128 124 128 131 123
196 214 230 309 13 7 354 353 357 11 15 23 27 23 24 18 28 43 52 52 55 43 32 32 45 60 78 89 98 103 99 86 86 83 74 72 80 98 113 131 143 142 131
204 189 193 236 288 357 5 6 15 32 36 34 30 19 18 17 21 35 45 50 54 52 41 27 25 48 72 79 87 96 109 104 91 90 83 74 70 71 72 84 108 136 134
199 195 218 249 275 57 50 29 30 46 51 37 31 20 10 8 14 24 37 44 53 64 46 18 21 51 69 77 87 101 103 96 91 87 84 78 76 73 72 75 82 79 77
200 212 226 228 232 121 97 67 41 44 57 44 40 25 359 357 4 19 26 31 39 52 39 40 54 63 67 66 80 98 97 96 96 97 95 85 76 87 88 82 72 74 66
206 217 214 207 216 212 144 116 93 67 63 55 42 13 352 352 358 359 2 9 21 35 34 41 58 66 64 62 69 73 77 96 109 111 108 94 81 81 82 88 88 79 70
211 218 214 210 205 200 194 194 193 220 211 194 215 238 313 336 322 340 358 360 358 14 56 51 52 56 59 56 59 66 74 87 94 98 104 101 93 93 83 72 81 78 89
205 214 212 208 207 200 198 241 276 245 251 237 225 222 253 270 306 341 360 9 21 78 83 72 67 70 78 82 85 75 73 89 101 109 112 114 117 115 104 87 88 101 110
199 206 206 205 203 201 201 208 239 270 266 266 258 253 253 275 304 333 353 14 46 93 89 95 97 98 98 98 100 102 98 99 113 118 122 126 126 121 119 119 115 111 114
201 205 200 204 204 204 205 208 208 214 242 262 255 247 252 264 282 310 343 45 55 58 109 142 149 145 134 128 127 124 120 113 111 119 126 130 133 132 134 142 146 145 142
198 201 203 205 207 208 208 208 210 213 220 231 239 252 245 255 277 284 288 146 175 188 186 183 184 176 169 160 153 149 144 140 137 132 133 139 143 138 145 154 158 158 148
205 207 196 200 207 210 210 211 216 218 220 219 222 224 203 187 228 244 216 202 200 206 202 196 197 192 183 176 167 156 153 154 151 147 150 150 151 151 156 159 163 166 176
202 207 204 201 207 210 212 216 218 217 219 222 227 219 189 193 214 219 216 212 210 208 204 201 198 195 191 183 178 179 178 184 182 175 170 168 161 159 164 166 172 173 170
199 201 198 203 211 214 218 219 217 219 222 226 232 228 205 203 213 217 219 220 217 212 203 195 198 200 195 191 187 185 189 195 195 187 183 180 175 170 166 168 171 172 174
201 203 204 208 211 220 223 223 219 219 222 221 219 213 202 211 220 221 223 221 215 210 203 196 200 207 209 207 201 189 190 199 199 188 183 182 182 181 176 180 182 176 187
203 205 207 209 210 214 220 225 224 223 222 222 218 214 212 215 219 223 223 219 213 210 203 201 204 207 205 208 210 208 207 207 202 197 189 184 184 185 182 187 192 195 196
205 207 209 210 210 213 217 223 225 226 226 224 221 219 217 217 220 224 222 216 211 212 210 208 210 212 212 210 209 211 213 209 203 198 192 182 187 188 187 191 193 195 195
207 210 211 211 211 212 213 218 222 223 225 227 224 220 218 218 220 221 218 212 212 214 214 211 213 213 214 214 216 217 215 211 207 202 193 184 186 193 190 196 201 199 201
Height
1520 1516 1512 1509 1506 1503 1500 1498 1495 1493 1491 1489 1487 1486 1484 1483 1483 1484 1484 1485 1486 1488 1490 1491 1494 1496 1498 1500 1503 1506 1509 1512 1514 1517 1520 1522 1524 1526 1529 1531 1533 1535 1537
1522 1518 1515 1512 1508 1505 1502 1500 1497 1495 1493 1491 1489 1487 1486 1484 1484 1483 1483 1484 1485 1487 1488 1489 1491 1494 1496 1498 1500 1502 1505 1507 1511 1513 1516 1519 1521 1523 1525 1528 1530 1531 1534
1524 1521 1517 1514 1511 1508 1505 1502 1500 1497 1495 1493 1491 1489 1488 1486 1485 1484 1484 1484 1484 1486 1487 1489 1491 1492 1494 1496 1498 1500 1502 1504 1507 1510 1512 1515 1518 1520 1523 1525 1527 1529 1531
1526 1523 1519 1516 1513 1510 1507 1505 1502 1499 1497 1495 1493 1491 1490 1488 1487 1486 1486 1485 1485 1486 1487 1489 1490 1492 1493 1495 1496 1498 1500 1502 1504 1507 1510 1512 1515 1517 1520 1522 1524 1527 1529
1528 1524 1521 1518 1515 1512 1510 1507 1504 1501 1499 1497 1495 1493 1491 1490 1489 1488 1488 1487 1486 1487 1487 1489 1490 1491 1492 1494 1495 1497 1498 1500 1503 1505 1508 1510 1513 1515 1518 1520 1523 1525 1527
1529 1526 1523 1520 1517 1514 1511 1509 1506 1504 1501 1499 1497 1495 1493 1492 1491 1490 1489 1489 1488 1488 1488 1489 1490 1491 1492 1493 1495 1496 1498 1500 1501 1503 1506 1508 1511 1514 1516 1518 1521 1523 1526
1530 1528 1525 1522 1519 1516 1513 1511 1508 1506 1503 1501 1499 1497 1495 1493 1492 1491 1490 1490 1489 1489 1489 1490 1490 1491 1492 1493 1494 1495 1497 1499 1501 1503 1505 1507 1509 1512 1514 1517 1520 1522 1525
1531 1529 1526 1523 1521 1518 1515 1513 1510 1508 1506 1503 1501 1499 1497 1495 1494 1493 1492 1492 1491 1491 1491 1491 1491 1492 1492 1494 1495 1496 1498 1499 1501 1503 1505 1507 1510 1512 1514 1517 1519 1522 1525
1532 1530 1527 1525 1522 1520 1517 1515 1512 1510 1508 1506 1503 1501 1499 1497 1496 1495 1494 1493 1493 1492 1492 1492 1492 1493 1494 1495 1496 1497 1499 1501 1502 1504 1506 1508 1510 1512 1514 1517 1519 1521 1524
1533 1531 1529 1526 1524 1521 1519 1516 1514 1512 1510 1508 1506 1503 1501 1499 1498 1497 1496 1495 1495 1494 1494 1494 1494 1495 1496 1497 1498 1499 1501 1502 1503 1505 1507 1509 1511 1512 1514 1517 1519 1521 1523
1533 1532 1530 1527 1525 1523 1520 1518 1516 1514 1512 1510 1508 1506 1504 1502 1501 1499 1498 1498 1497 1497 1496 1496 1496 1497 1498 1499 1501 1502 1503 1504 1505 1507 1508 1510 1512 1513 1515 1517 1519 1522 1524
1534 1532 1531 1529 1527 1525 1522 1520 1517 1515 1513 1512 1510 1508 1506 1505 1503 1502 1501 1500 1500 1499 1499 1499 1499 1500 1501 1502 1503 1504 1505 1507 1508 1509 1510 1512 1513 1515 1516 1518 1520 1522 1524
1534 1533 1531 1530 1528 1526 1524 1521 1519 1517 1515 1513 1512 1510 1508 1507 1506 1504 1503 1503 1502 1502 1501 1501 1502 1503 1503 1504 1506 1507 1508 1509 1510 1511 1512 1514 1515 1516 1518 1519 1521 1523 1524
1533 1532 1531 1530 1529 1527 1525 1523 1521 1519 1517 1515 1513 1512 1510 1509 1508 1507 1506 1505 1505 1504 1504 1504 1505 1505 1506 1507 1508 1509 1510 1511 1512 1513 1514 1515 1516 1518 1519 1521 1522 1523 1524
1532 1532 1531 1530 1529 1527 1526 1524 1522 1520 1518 1517 1515 1513 1512 1511 1510 1509 1508 1507 1507 1507 1507 1507 1507 1508 1508 1509 1510 1511 1512 1513 1514 1515 1516 1517 1518 1519 1520 1522 1523 1524 1525
1531 1530 1530 1529 1528 1527 1526 1525 1523 1521 1519 1518 1516 1514 1513 1512 1511 1510 1510 1509 1509 1509 1509 1509 1509 1509 1510 1510 1511 1512 1513 1514 1515 1516 1517 1518 1519 1520 1521 1522 1523 1524 1525
1528 1528 1528 1527 1527 1526 1525 1524 1523 1522 1520 1518 1517 1515 1514 1513 1512 1512 1511 1511 1510 1510 1510 1510 1510 1511 1511 1511 1512 1513 1514 1515 1516 1517 1518 1519 1520 1521 1522 1523 1524 1525 1525
1526 1525 1525 1525 1525 1524 1523 1523 1522 1521 1520 1519 1517 1516 1515 1513 1513 1512 1512 1512 1511 1511 1510 1510 1511 1511 1511 1512 1512 1513 1514 1515 1516 1517 1518 1519 1520 1521 1522 1522 1524 1524 1525
1523 1522 1522 1522 1522 1522 1521 1521 1520 1519 1519 1518 1517 1516 1515 1513 1512 1512 1511 1511 1511 1511 1510 1510 1510 1511 1511 1511 1512 1512 1513 1514 1515 1516 1517 1518 1519 1520 1521 1522 1523 1524 1524
1519 1519 1518 1518 1518 1518 1518 1518 1517 1517 1516 1516 1515 1515 1514 1513 1512 1511 1510 1510 1510 1509 1509 1509 1509 1510 1510 1510 1511 1511 1512 1513 1514 1515 1516 1517 1518 1519 1520 1520 1521 1522 1523
1514 1514 1514 1514 1514 1514 1514 1514 1514 1514 1513 1513 1513 1513 1512 1511 1511 1510 1509 1508 1508 1508 1508 1507 1508 1508 1508 1508 1509 1510 1510 1511 1512 1513 1514 1515 1516 1517 1518 1519 1519 1520 1521
1508 1509 1509 1509 1509 1509 1509 1509 1510 1510 1509 1510 1510 1510 1509 1509 1508 1508 1507 1506 1506 1506 1505 1505 1505 1505 1505 1506 1506 1507 1508 1508 1509 1510 1511 1512 1513 1514 1515 1516 1517 1517 1518
1502 1502 1503 1503 1503 1504 1504 1504 1504 1505 1505 1505 1505 1506 1506 1505 1505 1505 1504 1504 1504 1503 1503 1503 1502 1503 1503 1503 1503 1504 1504 1505 1506 1507 1508 1509 1510 1511 1512 1512 1513 1514 1515
1494 1495 1496 1496 1497 1497 1497 1498 1499 1499 1499 1500 1500 1500 1501 1501 1501 1501 1501 1501 1500 1500 1500 1500 1500 1499 1499 1500 1500 1500 1501 1502 1503 1503 1505 1505 1506 1507 1508 1509 1510 1511 1512
1485 1486 1487 1488 1489 1490 1490 1491 1492 1492 1493 1494 1494 1495 1495 1496 1496 1496 1497 1497 1497 1497 1497 1496 1496 1496 1496 1496 1496 1497 1497 1498 1499 1500 1500 1501 1502 1503 1504 1505 1506 1507 1508
1475 1477 1478 1479 1480 1481 1482 1483 1484 1485 1486 1486 1487 1488 1489 1489 1490 1491 1491 1492 1492 1492 1492 1492 1492 1492 1492 1492 1493 1493 1493 1494 1494 1495 1496 1497 1498 1498 1499 1500 1501 1502 1503